Miscellaneous Local Product
Issued by NWS Hastings, NE

Home | Current Version | Previous Version | Graphics & Text | Print | Product List | Glossary On
Versions: 1 2 3 4 5 6 7 8 9 10 11 12 13 14 15 16 17 18 19 20 21 22 23 24 25 26 27 28 29 30 31 32 33 34 35 36 37 38 39 40 41 42 43 44 45 46 47 48 49 50
000
AXUS43 KGID 302202
MISGRI

GID CWA HOURLY WEATHER ROUNDUP
NATIONAL WEATHER SERVICE HASTINGS NE
500 PM CDT SUN AUG 30 2015

NOTE: "FAIR" INDICATES FEW OR NO CLOUDS BELOW 12,000 FEET WITH NO
SIGNIFICANT WEATHER AND/OR OBSTRUCTIONS TO VISIBILITY.

...SOUTH CENTRAL NEBRASKA...

CITY           SKY/WX    TMP DP  RH WIND       PRES   REMARKS
GRAND ISLAND   SUNNY     79  63  57 S14       29.98S
HASTINGS       SUNNY     81  62  52 S14       29.98S
KEARNEY        SUNNY     82  63  51 S13       29.96F
ORD            SUNNY     86  61  42 S15G23    29.92S
YORK           SUNNY     77  66  69 S12       29.98F
AURORA         SUNNY     77  65  66 S13       29.98S
LEXINGTON      SUNNY     89  58  35 S16       29.95F
HOLDREGE       SUNNY     83  60  44 S14G20    29.97F
HEBRON         SUNNY     78  63  59 S9        29.99F

...NEBRASKA PANHANDLE...

CITY           SKY/WX    TMP DP  RH WIND       PRES   REMARKS
CHADRON        SUNNY    102  38  11 S9G16     29.77F HX  96
ALLIANCE       SUNNY     98  39  13 SW15      29.87F HX  93
SCOTTSBLUFF    SUNNY     97  47  18 E12       29.86F HX  93
SIDNEY         SUNNY     98  35  11 SW9G22    29.93F HX  93

...WESTERN AND NORTH CENTRAL NEBRASKA...

CITY           SKY/WX    TMP DP  RH WIND       PRES   REMARKS
VALENTINE      CLOUDY    95  44  17 S26G33    29.82F HX  91
AINSWORTH      MOSUNNY   92  46  20 S23       29.86F
ONEILL         SUNNY     86  65  48 S18       29.90F
BROKEN BOW     SUNNY     87  60  40 S13G25    29.93F
IMPERIAL       SUNNY     95  39  14 S18G25    29.93F HX  91
NORTH PLATTE   SUNNY     92  41  17 S14G26    29.91F
MCCOOK         SUNNY     96  38  13 S17       29.92F HX  91

...EASTERN NEBRASKA...

CITY           SKY/WX    TMP DP  RH WIND       PRES   REMARKS
NORFOLK        SUNNY     77  67  71 S12       29.95F
TEKAMAH        SUNNY     75  67  76 S8        29.98F
COLUMBUS       SUNNY    N/A N/A N/A SE9       29.96F
ALBION         SUNNY     78  64  61 S13       29.96F
OMAHA EPPLEY   PTSUNNY   76  66  71 S8        29.99F
OFFUTT AFB     SUNNY     76  67  72 S9        29.98F
MILLARD        MOSUNNY   75  67  74 S7        29.99F
LINCOLN        SUNNY     78  66  66 S10       29.99F
NEBRASKA CITY  MOSUNNY   77  64  64 SW7       30.01S
BEATRICE       SUNNY     77  66  69 S9        30.00S
FALLS CITY     SUNNY     80  69  69 SE5       29.99F

...NORTHERN KANSAS...

CITY           SKY/WX    TMP DP  RH WIND       PRES   REMARKS
GOODLAND       SUNNY     91  39  16 S20G26    29.98F HAZE
HILL CITY      SUNNY     95  45  17 SE13G24   29.95F HAZE    HX  91
NORTON         CLEAR     90  37  15 SE12      29.94F
PHILLIPSBURG   SUNNY     90  55  31 E13       29.96F
SMITH CENTER   SUNNY     81  61  50 SE13      29.98F
HAYS           SUNNY     90  52  27 S13       29.96S
RUSSELL        SUNNY     87  58  37 SE13      29.95F
CONCORDIA      SUNNY     78  66  66 SE14      29.99F
SALINA         SUNNY     83  65  54 E12       29.98F
TOPEKA         SUNNY     83  69  62 SE5       29.98F



USA.gov is the U.S. government's official web portal to all federal, state and local government web resources and services.